Location: Kawakawa
(35.3830°S, 174.0670°E)
Time: 02:14:22
(UTC+12:00)

AQUARIUS - Pass Details

Date: 15 August 2020
Orbit: 650 x 652 km, 98.0° (Epoch: 19 September)

Event Time Altitude Azimuth Distance (km) Brightness Sun altitude
Rises 18:30:57 0° 165° (SSE) 3,009 7.3 -8.5°
Reaches altitude 10° 18:33:13 10° 161° (SSE) 2,089 6.5 -9.0°
Maximum altitude 18:37:44 65° 79° (E) 730 4.2 -9.9°
Drops below altitude 10° 18:42:13 10° 357° (N) 2,061 6.9 -10.8°
Sets 18:44:26 0° 354° (N) 2,963 7.8 -11.2°
